www.pogodaiklimat.ru

Погода и климат >> Архив погоды >> Норвегия >> Бляшу


ПОГОДА в Бляшу

  • Прогноз погоды в Бляшу
  • Монитор погоды в Бляшу

АРХИВ ПОГОДЫ в Бляшу

Время (UTC), дата Ветер
(напр.,м/с)
 
Видим.   Явления Облачность Т
(С)
Тd
(С)
f
(%)
Тe
(С)
Тes
(С)
Комфортность P
(гПа)
Po
(гПа)
Тmin
(С)
Tmax
(С)
R
(мм)
R24
(мм)
S
(см)
04 15.08 ЮВ 4
{5}
н/о н/о +2.3 -1 -1 1009.7 882.3
05 15.08 В 4
{5}
н/о н/о +2.4 -1 -1 1009.7 882.3
06 15.08 ЮВ 6
{6}
н/о н/о +3.7 -0 -0 1009.3 882.1 +2.1 +6.0
07 15.08 ЮВ 6
{8}
н/о н/о +4.7 +1 +1 1008.6 881.9
08 15.08 ЮВ 7
{8}
н/о н/о +6.1 +2 +2 1008.0 881.9
09 15.08 ЮВ 7
{9}
н/о н/о +7.2 +4 +4 1007.3 881.8
10 15.08 ЮВ 8
{10}
н/о н/о +8.2 +5 +5 1006.3 881.5
11 15.08 ЮВ 9
{11}
н/о н/о +8.4 +5 +5 1005.9 881.5
12 15.08 ЮВ 9
{11}
н/о н/о +7.8 +4 +4 1006.2 881.6
13 15.08 ЮВ 10
{13}
н/о н/о +7.7 +4 +4 1005.9 881.3
14 15.08 ЮВ 11
{13}
н/о н/о +7.2 +3 +3 1005.6 880.9
15 15.08 ЮВ 9
{12}
н/о н/о +7.1 +3 +3 1006.1 881.1
16 15.08 ЮВ 8
{11}
н/о н/о +7.3 +4 +4 1006.0 881.1
17 15.08 ЮВ 8
{10}
н/о н/о +7.5 +4 +4 1005.8 881.0
18 15.08 В 8
{13}
н/о н/о +7.7 +4 +4 1005.4 880.8 +3.5 +9.0
19 15.08 ЮВ 8
{9}
н/о н/о +7.7 +4 +4 1005.4 880.8
20 15.08 ЮВ 8
{10}
н/о н/о +7.9 +4 +4 1005.4 880.9
21 15.08 ЮВ 6
{9}
н/о н/о +8.4 +6 +6 1005.5 881.0
22 15.08 ЮВ 6
{9}
н/о н/о +8.8 +6 +6 1005.7 881.4
23 15.08 ЮВ 6
{8}
н/о н/о +9.0 +6 +6 1005.4 881.3
00 16.08 Ю 6
{10}
н/о н/о +9.2 +7 +7 1005.4 881.4
01 16.08 Ю 4
{7}
н/о н/о +9.3 +8 +8 1005.6 881.7
02 16.08 З 4
{7}
н/о н/о +9.0 +7 +7 1006.0 881.9
03 16.08 ЮЗ 5
{8}
н/о н/о +8.7 +6 +6 1006.2 882.0
04 16.08 З 6
{8}
н/о н/о +7.6 +5 +5 1007.1 882.3
05 16.08 З 5
{8}
н/о н/о +7.0 +4 +4 1007.8 882.6
06 16.08 З 5
{8}
н/о н/о +6.9 +4 +4 1008.1 882.9 +6.9 +9.4
07 16.08 З 4
{6}
н/о н/о +6.9 +5 +5 1008.7 883.4
08 16.08 З 3
{5}
н/о н/о +6.9 +5 +5 1009.1 883.7
09 16.08 З 5
{6}
н/о н/о +6.8 +4 +4 1009.2 883.8
10 16.08 З 3
{6}
н/о н/о +7.1 +6 +6 1009.6 884.1
11 16.08 З 1
{4}
н/о н/о +8.4 +9 +9 1009.5 884.2
12 16.08 ЮЗ 2
{6}
н/о н/о +9.9 +10 +10 1008.9 884.1
13 16.08 З 3
{4}
н/о н/о +10.1 +9 +9 1007.9 883.9
14 16.08 ЮЗ 3
{4}
н/о н/о +10.4 +9 +9 1007.4 883.5
15 16.08 ЮЗ 4
{6}
н/о н/о +10.8 +9 +9 1007.2 883.5
16 16.08 Ю 3
{4}
н/о н/о +10.5 +10 +10 1006.6 882.9
17 16.08 ЮЗ 5
{6}
н/о н/о +9.9 +8 +8 1006.4 882.6
18 16.08 Ю 6
{7}
н/о н/о +9.0 +6 +6 1006.0 881.9 +6.7 +11.2
19 16.08 Ю 4
{8}
н/о н/о +7.9 +6 +6 1007.1 882.5
20 16.08 Ю 4
{8}
н/о н/о +7.5 +5 +5 1006.8 881.9
21 16.08 Ю 9
{10}
н/о н/о +7.5 +4 +4 1006.5 881.6
22 16.08 Ю 8
{11}
н/о н/о +7.5 +4 +4 1005.5 880.8
23 16.08 ЮВ 9
{11}
н/о н/о +7.5 +4 +4 1004.3 879.8
00 17.08 ЮВ 9
{13}
н/о н/о +7.4 +4 +4 1003.8 879.2
01 17.08 ЮВ 10
{12}
н/о н/о +7.5 +3 +3 1002.8 878.4
02 17.08 ЮВ 8
{13}
н/о н/о +7.1 +3 +3 1001.8 877.4
03 17.08 В 9
{10}
н/о н/о +7.2 +3 +3 1000.5 876.3
04 17.08 ЮВ 8
{10}
н/о н/о +7.5 +4 +4 999.1 875.1
05 17.08 ЮВ 8
{12}
н/о н/о +8.0 +5 +5 998.1 874.4
06 17.08 ЮВ 9
{13}
н/о н/о +9.3 +6 +6 997.4 873.9 +7.0 +9.3
07 17.08 ЮВ 10
{13}
н/о н/о +9.9 +7 +7 996.1 873.4
08 17.08 ЮВ 8
{13}
н/о н/о +10.0 +7 +7 995.5 873.0
09 17.08 Ю 7
{12}
н/о н/о +10.3 +8 +8 995.4 873.1
10 17.08 Ю 8
{10}
н/о н/о +11.0 +8 +8 995.2 873.0
11 17.08 Ю 10
{11}
н/о н/о +12.1 +9 +9 995.2 873.2
12 17.08 ЮЗ 9
{13}
н/о н/о +11.7 +9 +9 996.0 873.9
13 17.08 Ю 8
{11}
н/о н/о +11.2 +9 +9 996.1 874.0
14 17.08 ЮЗ 9
{12}
н/о н/о +10.8 +8 +8 997.0 874.4
15 17.08 ЮЗ 7
{12}
н/о н/о +10.1 +8 +8 997.5 874.8
16 17.08 Ю 8
{10}
н/о н/о +10.2 +7 +7 997.2 874.5
17 17.08 ЮЗ 8
{11}
н/о н/о +9.5 +6 +6 997.6 874.8
18 17.08 Ю 7
{12}
н/о н/о +9.2 +6 +6 997.9 874.9 +9.2 +12.1
19 17.08 Ю 6
{9}
н/о н/о +8.7 +6 +6 998.3 875.0
20 17.08 ЮЗ 10
{13}
н/о н/о +7.3 +3 +3 999.8 875.7
21 17.08 ЮЗ 7
{10}
н/о н/о +6.7 +3 +3 1000.4 876.1
22 17.08 ЮЗ 6
{9}
н/о н/о +6.4 +3 +3 1001.0 876.4
23 17.08 ЮЗ 6
{8}
н/о н/о +6.1 +3 +3 1001.5 876.8
00 18.08 ЮЗ 6
{13}
н/о н/о +6.2 +3 +3 1002.0 877.1
01 18.08 ЮЗ 4
{8}
н/о н/о +6.0 +4 +4 1002.2 877.4
02 18.08 ЮЗ 3
{6}
н/о н/о +5.9 +4 +4 1002.1 877.2
03 18.08 Ю 4
{6}
н/о н/о +5.8 +3 +3 1002.1 877.1
04 18.08 Ю 3
{5}
н/о н/о +6.0 +4 +4 1002.3 877.3
05 18.08 Ю 3
{6}
н/о н/о +6.1 +4 +4 1001.9 877.1
06 18.08 Ю 5
{8}
н/о н/о +6.1 +3 +3 1001.9 877.1 +5.5 +9.2
07 18.08 Ю 6
{8}
н/о н/о +6.5 +3 +3 1001.8 877.0
09 18.08 Ю 8
{10}
н/о н/о +7.7 +4 +4 1001.4 877.3
10 18.08 Ю 5
{9}
н/о н/о +7.2 +5 +5 1001.8 877.3
11 18.08 ЮВ 6
{8}
н/о н/о +8.2 +5 +5 1001.2 876.8
12 18.08 Ю 7 н/о н/о +9.2 +6 +6 1000.1 876.5
13 18.08 Ю 6
{11}
н/о н/о +8.4 +6 +6 1000.6 876.8
14 18.08 Ю 6
{12}
н/о н/о +8.1 +5 +5 1000.7 876.5
15 18.08 Ю 9
{11}
н/о н/о +8.5 +5 +5 999.9 876.2
16 18.08 Ю 6
{9}
н/о н/о +8.0 +5 +5 1000.2 876.2
17 18.08 ЮВ 7
{10}
н/о н/о +6.6 +3 +3 1000.4 876.1
18 18.08 ЮВ 6
{12}
н/о н/о +6.7 +4 +4 1000.1 875.6
19 18.08 ЮВ 5
{6}
н/о н/о +6.5 +4 +4 999.9 875.5
20 18.08 Ю 5
{7}
н/о н/о +6.7 +4 +4 1000.4 875.8
21 18.08 Ю 4
{7}
н/о н/о +6.7 +4 +4 1000.3 875.9
22 18.08 Ю 4
{6}
н/о н/о +6.7 +4 +4 1000.4 876.0
23 18.08 ЮЗ 4
{7}
н/о н/о +6.5 +4 +4 1000.4 875.9
00 19.08 Ю 6
{7}
н/о н/о +6.7 +4 +4 1000.2 875.7
01 19.08 Ю 6
{8}
н/о н/о +6.7 +4 +4 1000.0 875.6
02 19.08 Ю 6
{9}
н/о н/о +7.0 +4 +4 999.4 875.2
04 19.08 Ю 7
{9}
н/о н/о +6.9 +4 +4 999.6 875.4
05 19.08 Ю 8
{11}
н/о н/о +6.9 +3 +3 999.5 875.3
06 19.08 Ю 7 н/о н/о +7.0 +4 +4 999.8 875.6
07 19.08 Ю 7
{9}
н/о н/о +7.3 +4 +4 1000.2 876.0
08 19.08 ЮЗ 8
{10}
н/о н/о +7.4 +4 +4 1000.6 876.4
09 19.08 ЮЗ 7
{10}
н/о н/о +7.2 +4 +4 1001.4 877.1
10 19.08 З 6
{10}
н/о н/о +7.0 +4 +4 1002.4 877.8
11 19.08 З 7
{12}
н/о н/о +6.9 +4 +4 1003.0 878.4
12 19.08 З 8
{12}
н/о н/о +6.8 +3 +3 1004.0 879.3
13 19.08 З 8
{13}
н/о н/о +6.7 +3 +3 1005.1 880.0
14 19.08 ЮЗ 8
{10}
н/о н/о +7.6 +4 +4 1005.5 880.5
15 19.08 ЮЗ 7
{11}
н/о н/о +7.1 +4 +4 1005.9 881.0
16 19.08 ЮЗ 6
{10}
н/о н/о +7.5 +5 +5 1006.2 881.4
17 19.08 ЮЗ 8
{10}
н/о н/о +7.1 +3 +3 1006.7 881.7
18 19.08 ЮЗ 8
{13}
н/о н/о +7.1 +3 +3 1007.0 882.0 +6.2 +7.9
19 19.08 ЮЗ 6
{8}
н/о н/о +7.1 +4 +4 1007.6 882.5
20 19.08 ЮЗ 5
{9}
н/о н/о +6.7 +4 +4 1008.4 883.1
21 19.08 ЮЗ 6
{8}
н/о н/о +6.8 +4 +4 1008.9 883.4
22 19.08 ЮЗ 6
{7}
н/о н/о +6.7 +4 +4 1009.0 883.6
23 19.08 ЮЗ 6
{8}
н/о н/о +6.6 +3 +3 1009.2 883.7
00 20.08 ЮЗ 6
{9}
н/о н/о +6.6 +3 +3 1009.5 883.9
01 20.08 ЮЗ 6
{8}
н/о н/о +6.6 +3 +3 1009.5 884.0
02 20.08 ЮЗ 4
{7}
н/о н/о +6.6 +4 +4 1009.9 884.3
03 20.08 ЮЗ 6
{8}
н/о н/о +6.8 +4 +4 1009.9 884.3
04 20.08 ЮЗ 6
{8}
н/о н/о +6.8 +4 +4 1010.1 884.6
05 20.08 ЮЗ 7
{10}
н/о н/о +6.7 +3 +3 1010.6 884.9
06 20.08 ЮЗ 7
{10}
н/о н/о +6.6 +3 +3 1010.8 885.1 +6.5 +7.2
07 20.08 ЮЗ 7
{8}
н/о н/о +6.7 +3 +3 1011.5 885.7
08 20.08 ЮЗ 7
{8}
н/о н/о +7.3 +4 +4 1011.9 886.1
09 20.08 ЮЗ 7
{9}
н/о н/о +7.8 +5 +5 1012.3 886.7
10 20.08 ЮЗ 6
{10}
н/о н/о +7.1 +4 +4 1013.1 887.3
11 20.08 ЮЗ 6
{9}
н/о н/о +7.5 +5 +5 1013.5 887.6
12 20.08 ЮЗ 8
{10}
н/о н/о +7.8 +4 +4 1013.7 888.0
13 20.08 ЮЗ 6
{9}
н/о н/о +7.6 +5 +5 1014.2 888.5
14 20.08 З 7
{9}
н/о н/о +7.1 +4 +4 1014.9 888.9
15 20.08 ЮЗ 6
{11}
н/о н/о +7.1 +4 +4 1015.6 889.4
16 20.08 З 7
{10}
н/о н/о +7.1 +4 +4 1015.9 889.6
17 20.08 З 6
{8}
н/о н/о +6.6 +3 +3 1016.2 889.8
18 20.08 З 5
{11}
н/о н/о +6.2 +3 +3 1016.9 890.2 +6.1 +8.7
20 20.08 З 6
{9}
н/о н/о +5.5 +2 +2 1018.5 891.4
21 20.08 З 6
{8}
н/о н/о +5.5 +2 +2 1018.9 891.7
22 20.08 З 6
{9}
н/о н/о +5.3 +2 +2 1019.4 892.1
23 20.08 З 6
{8}
н/о н/о +4.6 +1 +1 1020.0 892.3
00 21.08 З 5 н/о н/о +4.8 +2 +2 1020.3 892.6
01 21.08 З 6
{7}
н/о н/о +4.9 +1 +1 1020.3 892.7
02 21.08 З 7
{8}
н/о н/о +4.8 +1 +1 1020.7 893.0
03 21.08 СЗ 6
{9}
н/о н/о +4.6 +1 +1 1021.1 893.3
04 21.08 СЗ 5
{7}
н/о н/о +4.6 +1 +1 1021.5 893.7
05 21.08 СЗ 6
{6}
н/о н/о +4.6 +1 +1 1022.1 894.2
06 21.08 СЗ 5
{9}
н/о н/о +4.8 +2 +2 1022.4 894.5
07 21.08 СЗ 6
{7}
н/о н/о +5.5 +2 +2 1022.8 894.9
09 21.08 З 5
{7}
н/о н/о +5.7 +3 +3 1023.3 895.5
10 21.08 З 6
{8}
н/о н/о +6.0 +3 +3 1023.7 895.8
11 21.08 З 5
{7}
н/о н/о +7.3 +5 +5 1023.4 895.9
12 21.08 З 5 н/о н/о +6.2 +3 +3 1023.5 896.1
13 21.08 З 6
{8}
н/о н/о +6.0 +3 +3 1024.3 896.4
14 21.08 З 5
{7}
н/о н/о +6.6 +4 +4 1024.1 896.4
15 21.08 З 5
{6}
н/о н/о +7.5 +5 +5 1023.7 896.5
16 21.08 З 4
{6}
н/о н/о +7.0 +5 +5 1023.7 896.5
17 21.08 З 4
{5}
н/о н/о +7.0 +5 +5 1023.5 896.3
18 21.08 З 3
{8}
н/о н/о +6.7 +5 +5 1023.3 896.1
19 21.08 ЮЗ 3
{4}
н/о н/о +6.3 +5 +5 1023.5 896.1
20 21.08 Ю 3
{4}
н/о н/о +6.0 +4 +4 1023.6 896.1
21 21.08 Ю 2
{5}
н/о н/о +6.1 +5 +5 1023.6 896.0
22 21.08 Ю 5
{6}
н/о н/о +6.3 +4 +4 1023.1 895.7
23 21.08 Ю 4
{6}
н/о н/о +6.0 +4 +4 1022.8 895.4
00 22.08 Ю 5
{7}
н/о н/о +6.3 +4 +4 1022.4 895.0
01 22.08 Ю 6
{8}
н/о н/о +6.3 +3 +3 1021.8 894.6
02 22.08 Ю 5
{7}
н/о н/о +6.5 +4 +4 1021.3 894.1

 

Местоположение метеостанции Бляшу (Норвегия): широта 59.33 долгота 6.88 высота над уровнем моря 1105 м.

В архиве по умолчанию представлена погода в Бляшу за последнюю неделю. Архивные данные за месяц целиком и за предыдущие месяцы, начиная с января 2011 года, Вы можете получить, выбрав интересующий диапазон дат из раскрывающегося списка и нажав кнопку "Ввод!".


*Определитесь, кто Вы:
робот инопланетянин человек

Внимание! Время в таблицах - всемирное. Для получения местного времени необходимо прибавить поправку, которая равна 1 ч.

Смотрите также архив погоды в соседних городах и на ближайших метеорологических станциях:

Погода в Ховдене (Норвегия) (40 км)
Погода в Валле (Норвегия) (40 км)
Погода в Сирдал-Синнесе (Норвегия) (46 км)
Погода в Сауде (Норвегия) (47 км)
Погода в Фистере (Норвегия) (52 км)
Погода на Лярватне (Норвегия) (53 км)
Погода в Вагсли (Норвегия) (56 км)
Погода в Хаукелисетере (Норвегия) (56 км)
Погода в Недре Ватс (Норвегия) (68 км)
Погода в Хойдалсмо (Норвегия) (77 км)

Пояснения к столбцам:

Ветер - указаны скорость ветра в м/с - средняя за 10 мин, порывы в срок и между сроками (в фигурных скобках) и направление, откуда дует ветер: С - северный, СВ - северо-восточный, В - восточный, ЮВ - юго-восточный, Ю - южный, ЮЗ - юго-западный, З - западный, СЗ - северо-западный.
Видимость - горизонтальная дальность видимости в метрах или километрах. При видимости от 1 до 10 км при отсутствии осадков обычно наблюдается дымка, при ухудшении видимости до 1 км и менее - туман. В сухую погоду видимость может ухудшаться дымом, пылью или мглою.
Явления - указаны атмосферные явления, наблюдавшиеся в срок или в последний час перед сроком; фигурными скобками обозначены явления, наблюдавшиеся между сроками (за 1-3 часа до срока); квадратными скобками обозначены град или гололедные отложения с указанием их диаметра в мм.
Облачность - указаны через наклонную черту общая и нижняя облачность в баллах и высота нижней границы облаков в метрах; квадратными скобками обозначены формы облаков: Ci - перистые, Cs - перисто-слоистые, Cc - перисто-кучевые, Ac - высококучевые, As - высокослоистые, Sc - слоисто-кучевые, Ns - слоисто-дождевые, Cu - кучевые, Cb - кучево-дождевые. Подробнее классификацию облаков см. в Атласе облаков (PDF).
T - Температура воздуха - температура, измеренная на высоте 2 м над землей.
Td - Температура точки росы - температура, при понижении до которой содержащийся в воздухе водяной пар достигнет насыщения.
f - Относительная влажность воздуха - влажноcть воздуха, измеренная на высоте 2 м над землей.
Te - Эффективная температура - температура, которую ощущает одетый по сезону человек в тени. Характеристика душности погоды. При расчете учитывается влияние влажности воздуха и скорости ветра на теплоощущения человека.
Tes - Эффективная температура на солнце - температура, которую ощущает человек, с поправкой на солнечный нагрев. Характеристика знойности погоды. Зависит от высоты солнца над горизонтом, облачности и скорости ветра. Ночью, в пасмурную погоду, а также при ветре 12 м/с и более поправка равна нулю.
P - Атмосферное давление - приведенное к уровню моря атмосферное давление.
Po - Атмосферное давление - измеренное на уровне метеостанции атмосферное давление.
Tmin - Минимальная температура - минимум температуры воздуха на высоте 2 м над землей.
Tmax - Максимальная температура - максимум температуры воздуха на высоте 2 м над землей.
R - Количество осадков - Количество выпавших осадков за период времени, мм. При наведении курсора мыши на число - период времени, за который выпало указанное количество осадков.
R24 - Количество осадков - Количество выпавших осадков за 24 часа, мм.
S - Снежный покров - Высота снежного покрова, см. При наведении курсора мыши на число - состояние снежного покрова и степень покрытия местности в баллах.